Year,Month,Day,Hour,Minute,Value (Times are PST for temperature in C)
2009,01,18,00,00,-0.40
2009,01,18,00,01,-0.40
2009,01,18,00,02,-0.40
2009,01,18,00,03,-0.40
2009,01,18,00,04,-0.40
2009,01,18,00,05,-0.40
2009,01,18,00,06,-0.40
2009,01,18,00,07,-0.40
2009,01,18,00,08,-0.40
2009,01,18,00,09,-0.40
2009,01,18,00,10,-0.40
2009,01,18,00,11,-0.40
2009,01,18,00,12,-0.40
2009,01,18,01,02,-0.50
2009,01,18,01,03,-0.60
2009,01,18,01,04,-0.60
2009,01,18,01,05,-0.60
2009,01,18,01,06,-0.60
2009,01,18,01,07,-0.60
2009,01,18,01,08,-0.60
2009,01,18,01,09,-0.50
2009,01,18,01,10,-0.50
2009,01,18,01,11,-0.50
2009,01,18,01,12,-0.50
2009,01,18,01,13,-0.50
2009,01,18,01,14,-0.40
2009,01,18,01,15,-0.40
2009,01,18,01,16,-0.40
2009,01,18,01,17,-0.40
2009,01,18,01,18,-0.40
2009,01,18,01,19,-0.40
2009,01,18,01,20,-0.40
2009,01,18,01,21,-0.30
2009,01,18,01,22,-0.30
2009,01,18,01,23,-0.30
2009,01,18,01,24,-0.30
2009,01,18,01,25,-0.30
2009,01,18,01,26,-0.30
2009,01,18,01,27,-0.30
2009,01,18,01,28,-0.30
2009,01,18,01,29,-0.30
2009,01,18,01,30,-0.30
2009,01,18,01,31,-0.30
2009,01,18,01,32,-0.30
2009,01,18,01,33,-0.20
2009,01,18,01,34,-0.20
2009,01,18,01,35,-0.20
2009,01,18,01,36,-0.10
2009,01,18,01,37,-0.10
2009,01,18,01,38,0.00
2009,01,18,01,39,0.00
2009,01,18,01,40,0.00
2009,01,18,01,41,0.10
2009,01,18,01,42,0.10
2009,01,18,01,43,0.20
2009,01,18,01,44,0.20
2009,01,18,01,45,0.20
2009,01,18,01,46,0.30
2009,01,18,01,47,0.30
2009,01,18,01,48,0.30
2009,01,18,01,49,0.40
2009,01,18,01,50,0.40
2009,01,18,01,51,0.50
2009,01,18,01,52,0.50
2009,01,18,01,53,0.60
2009,01,18,01,54,0.60
2009,01,18,01,55,0.60
2009,01,18,01,56,0.70
2009,01,18,01,57,0.70
2009,01,18,01,58,0.70
2009,01,18,01,59,0.80
2009,01,18,02,00,0.80
2009,01,18,02,01,0.80
2009,01,18,02,02,0.80
2009,01,18,02,03,0.70
2009,01,18,02,04,0.70
2009,01,18,02,05,0.70
2009,01,18,02,06,0.70
2009,01,18,02,07,0.70
2009,01,18,02,08,0.60
2009,01,18,02,09,0.60
2009,01,18,02,10,0.60
2009,01,18,02,11,0.60
2009,01,18,02,12,0.60
2009,01,18,02,13,0.60
2009,01,18,02,14,0.60
2009,01,18,02,15,0.60
2009,01,18,02,16,0.60
2009,01,18,02,17,0.60
2009,01,18,02,18,0.60
2009,01,18,02,19,0.60
2009,01,18,02,20,0.50
2009,01,18,02,21,0.50
2009,01,18,02,22,0.50
2009,01,18,02,23,0.40
2009,01,18,02,24,0.40
2009,01,18,02,25,0.40
2009,01,18,02,26,0.40
2009,01,18,02,27,0.40
2009,01,18,02,28,0.40
2009,01,18,02,29,0.40
2009,01,18,02,30,0.40
2009,01,18,02,31,0.50
2009,01,18,02,32,0.50
2009,01,18,02,33,0.50
2009,01,18,02,34,0.50
2009,01,18,02,35,0.60
2009,01,18,02,36,0.60
2009,01,18,02,37,0.60
2009,01,18,02,38,0.70
2009,01,18,02,39,0.70
2009,01,18,02,40,0.80
2009,01,18,02,41,0.80
2009,01,18,02,42,0.80
2009,01,18,02,43,0.80
2009,01,18,02,44,0.90
2009,01,18,02,45,0.90
2009,01,18,02,46,1.00
2009,01,18,02,47,1.10
2009,01,18,02,48,1.20
2009,01,18,02,49,1.30
2009,01,18,02,50,1.30
2009,01,18,02,51,1.30
2009,01,18,02,52,1.40
2009,01,18,02,53,1.50
2009,01,18,02,54,1.60
2009,01,18,02,55,1.70
2009,01,18,02,56,1.80
2009,01,18,02,57,1.80
2009,01,18,02,58,1.90
2009,01,18,02,59,2.00
2009,01,18,03,00,2.00
2009,01,18,03,01,2.20
2009,01,18,03,02,2.30
2009,01,18,03,03,2.40
2009,01,18,03,04,2.50
2009,01,18,03,05,2.60
2009,01,18,03,06,2.70
2009,01,18,03,07,2.80
2009,01,18,03,08,2.90
2009,01,18,03,09,3.00
2009,01,18,03,10,3.10
2009,01,18,03,11,3.20
2009,01,18,03,12,3.30
2009,01,18,03,13,3.30
2009,01,18,03,14,3.40
2009,01,18,03,15,3.50
2009,01,18,03,16,3.50
2009,01,18,03,17,3.50
2009,01,18,03,18,3.50
2009,01,18,03,19,3.40
2009,01,18,03,20,3.40
2009,01,18,03,21,3.40
2009,01,18,03,22,3.40
2009,01,18,03,23,3.30
2009,01,18,03,24,3.20
2009,01,18,03,25,3.10
2009,01,18,03,26,3.00
2009,01,18,03,27,3.00
2009,01,18,03,28,2.90
2009,01,18,03,29,2.90
2009,01,18,03,30,2.80
2009,01,18,03,31,2.80
2009,01,18,03,32,2.80
2009,01,18,03,33,2.80
2009,01,18,03,34,2.80
2009,01,18,03,35,2.80
2009,01,18,03,36,2.80
2009,01,18,03,37,2.80
2009,01,18,03,38,2.90
2009,01,18,03,39,2.80
2009,01,18,03,40,2.80
2009,01,18,03,41,2.80
2009,01,18,03,42,2.80
2009,01,18,03,43,2.80
2009,01,18,03,44,2.80
2009,01,18,03,45,2.80
2009,01,18,03,46,2.80
2009,01,18,03,47,2.90
2009,01,18,03,48,3.00
2009,01,18,03,49,3.10
2009,01,18,03,50,3.20
2009,01,18,03,51,3.20
2009,01,18,03,52,3.20
2009,01,18,03,53,3.20
2009,01,18,03,54,3.20
2009,01,18,03,55,3.30
2009,01,18,03,56,3.30
2009,01,18,03,57,3.40
2009,01,18,03,58,3.40
2009,01,18,03,59,3.40
2009,01,18,04,00,3.40
2009,01,18,04,01,3.40
2009,01,18,04,02,3.50
2009,01,18,04,03,3.50
2009,01,18,04,04,3.60
2009,01,18,04,05,3.60
2009,01,18,04,06,3.60
2009,01,18,04,07,3.70
2009,01,18,04,08,3.70
2009,01,18,04,09,3.60
2009,01,18,04,10,3.50
2009,01,18,04,11,3.30
2009,01,18,04,12,3.20
2009,01,18,04,13,3.00
2009,01,18,04,14,2.90
2009,01,18,04,15,2.80
2009,01,18,04,16,2.70
2009,01,18,04,17,2.60
2009,01,18,04,18,2.50
2009,01,18,04,19,2.40
2009,01,18,04,20,2.40
2009,01,18,04,21,2.30
2009,01,18,04,22,2.30
2009,01,18,04,23,2.20
2009,01,18,04,24,2.20
2009,01,18,04,25,2.20
2009,01,18,04,26,2.10
2009,01,18,04,27,2.00
2009,01,18,04,28,2.00
2009,01,18,04,29,1.90
2009,01,18,04,30,1.80
2009,01,18,04,31,1.80
2009,01,18,04,32,1.80
2009,01,18,04,33,1.80
2009,01,18,04,34,1.80
2009,01,18,04,35,1.90
2009,01,18,04,36,2.00
2009,01,18,04,37,2.00
2009,01,18,04,38,2.00
2009,01,18,04,39,1.90
2009,01,18,04,40,1.90
2009,01,18,04,41,1.80
2009,01,18,04,42,1.90
2009,01,18,04,43,1.80
2009,01,18,04,44,1.70
2009,01,18,04,45,1.70
2009,01,18,04,46,1.60
2009,01,18,04,47,1.60
2009,01,18,04,48,1.60
2009,01,18,04,49,1.50
2009,01,18,04,50,1.50
2009,01,18,04,51,1.40
2009,01,18,04,52,1.40
2009,01,18,04,53,1.30
2009,01,18,04,54,1.30
2009,01,18,04,55,1.30
2009,01,18,04,56,1.30
2009,01,18,04,57,1.30
2009,01,18,04,58,1.30
2009,01,18,04,59,1.30
2009,01,18,05,00,1.30
2009,01,18,05,01,1.30
2009,01,18,05,02,1.30
2009,01,18,05,03,1.20
2009,01,18,05,04,1.20
2009,01,18,05,05,1.20
2009,01,18,05,06,1.10
2009,01,18,05,07,1.00
2009,01,18,05,08,1.00
2009,01,18,05,09,1.00
2009,01,18,05,10,0.90
2009,01,18,05,11,0.90
2009,01,18,05,12,0.80
2009,01,18,05,13,0.80
2009,01,18,05,14,0.80
2009,01,18,05,15,0.80
2009,01,18,05,16,0.70
2009,01,18,05,17,0.70
2009,01,18,05,18,0.70
2009,01,18,05,19,0.60
2009,01,18,05,20,0.60
2009,01,18,05,21,0.50
2009,01,18,05,22,0.50
2009,01,18,05,23,0.40
2009,01,18,05,24,0.40
2009,01,18,05,25,0.40
2009,01,18,05,26,0.30
2009,01,18,05,27,0.30
2009,01,18,05,28,0.30
2009,01,18,05,29,0.30
2009,01,18,05,30,0.20
2009,01,18,05,31,0.20
2009,01,18,05,32,0.20
2009,01,18,05,33,0.20
2009,01,18,05,34,0.20
2009,01,18,05,35,0.20
2009,01,18,05,36,0.10
2009,01,18,05,37,0.10
2009,01,18,05,38,0.10
2009,01,18,05,39,0.10
2009,01,18,05,40,0.10
2009,01,18,05,41,0.10
2009,01,18,05,42,0.00
2009,01,18,05,43,0.00
2009,01,18,05,44,-0.10
2009,01,18,05,45,-0.10
2009,01,18,05,46,-0.20
2009,01,18,05,47,-0.20
2009,01,18,05,48,-0.20
2009,01,18,05,49,-0.30
2009,01,18,05,50,-0.30
2009,01,18,05,51,-0.30
2009,01,18,05,52,-0.30
2009,01,18,05,53,-0.30
2009,01,18,05,54,-0.30
2009,01,18,05,55,-0.30
2009,01,18,05,56,-0.30
2009,01,18,05,57,-0.40
2009,01,18,05,58,-0.40
2009,01,18,05,59,-0.40
2009,01,18,06,00,-0.40
2009,01,18,06,01,-0.40
2009,01,18,06,02,-0.40
2009,01,18,06,03,-0.40
2009,01,18,06,04,-0.40
2009,01,18,06,05,-0.50
2009,01,18,06,06,-0.50
2009,01,18,06,07,-0.50
2009,01,18,06,08,-0.50
2009,01,18,06,09,-0.60
2009,01,18,06,10,-0.60
2009,01,18,06,11,-0.60
2009,01,18,06,12,-0.60
2009,01,18,06,13,-0.60
2009,01,18,06,14,-0.60
2009,01,18,06,15,-0.50
2009,01,18,06,16,-0.50
2009,01,18,06,17,-0.40
2009,01,18,06,18,-0.40
2009,01,18,06,19,-0.40
2009,01,18,06,20,-0.40
2009,01,18,06,21,-0.40
2009,01,18,06,22,-0.40
2009,01,18,06,23,-0.30
2009,01,18,06,24,-0.30
2009,01,18,06,25,-0.30
2009,01,18,06,26,-0.40
2009,01,18,06,27,-0.40
2009,01,18,06,28,-0.40
2009,01,18,06,29,-0.40
2009,01,18,06,30,-0.40
2009,01,18,06,31,-0.40
2009,01,18,06,32,-0.40
2009,01,18,06,33,-0.40
2009,01,18,06,34,-0.50
2009,01,18,06,35,-0.50
2009,01,18,06,36,-0.60
2009,01,18,06,37,-0.60
2009,01,18,06,38,-0.60
2009,01,18,06,39,-0.60
2009,01,18,06,40,-0.60
2009,01,18,06,41,-0.60
2009,01,18,06,42,-0.70
2009,01,18,06,43,-0.70
2009,01,18,06,44,-0.70
2009,01,18,06,45,-0.70
2009,01,18,06,46,-0.70
2009,01,18,06,47,-0.70
2009,01,18,06,48,-0.80
2009,01,18,06,49,-0.80
2009,01,18,06,50,-0.80
2009,01,18,06,51,-0.80
2009,01,18,06,52,-0.80
2009,01,18,06,53,-0.90
2009,01,18,06,54,-0.90
2009,01,18,06,55,-0.90
2009,01,18,06,56,-0.90
2009,01,18,06,57,-1.00
2009,01,18,06,58,-1.00
2009,01,18,06,59,-1.00
2009,01,18,07,00,-1.00
2009,01,18,07,01,-1.10
2009,01,18,07,02,-1.10
2009,01,18,07,03,-1.10
2009,01,18,07,04,-1.10
2009,01,18,07,05,-1.20
2009,01,18,07,06,-1.20
2009,01,18,07,07,-1.20
2009,01,18,07,08,-1.20
2009,01,18,07,09,-1.20
2009,01,18,07,10,-1.20
2009,01,18,07,11,-1.20
2009,01,18,07,12,-1.20
2009,01,18,07,13,-1.20
2009,01,18,07,14,-1.20
2009,01,18,07,15,-1.20
2009,01,18,07,16,-1.20
2009,01,18,07,17,-1.20
2009,01,18,07,18,-1.20
2009,01,18,07,19,-1.20
2009,01,18,07,20,-1.20
2009,01,18,07,21,-1.10
2009,01,18,07,22,-1.10
2009,01,18,07,23,-1.10
2009,01,18,07,24,-1.10
2009,01,18,07,25,-1.00
2009,01,18,07,26,-1.00
2009,01,18,07,27,-0.90
2009,01,18,07,28,-0.80
2009,01,18,07,29,-0.70
2009,01,18,07,30,-0.60
2009,01,18,07,31,-0.50
2009,01,18,07,32,-0.40
2009,01,18,07,33,-0.30
2009,01,18,07,34,-0.20
2009,01,18,07,35,-0.20
2009,01,18,07,36,0.00
2009,01,18,07,37,0.10
2009,01,18,07,38,0.10
2009,01,18,07,39,0.10
2009,01,18,07,40,0.20
2009,01,18,07,41,0.20
2009,01,18,07,42,0.20
2009,01,18,07,43,0.30
2009,01,18,07,44,0.30
2009,01,18,07,45,0.40
2009,01,18,07,46,0.40
2009,01,18,07,47,0.40
2009,01,18,07,48,0.40
2009,01,18,07,49,0.40
2009,01,18,07,50,0.40
2009,01,18,07,51,0.40
2009,01,18,07,52,0.40
2009,01,18,07,53,0.40
2009,01,18,07,54,0.40
2009,01,18,07,55,0.30
2009,01,18,07,56,0.30
2009,01,18,07,57,0.30
2009,01,18,07,58,0.30
2009,01,18,07,59,0.30
2009,01,18,08,00,0.20
2009,01,18,08,01,0.20
2009,01,18,08,02,0.20
2009,01,18,08,03,0.20
2009,01,18,08,04,0.20
2009,01,18,08,05,0.20
2009,01,18,08,06,0.20
2009,01,18,08,07,0.20
2009,01,18,08,08,0.20
2009,01,18,08,09,0.20
2009,01,18,08,10,0.20
2009,01,18,08,11,0.20
2009,01,18,08,12,0.20
2009,01,18,08,13,0.40
2009,01,18,08,14,0.50
2009,01,18,08,15,0.50
2009,01,18,08,16,0.60
2009,01,18,08,17,0.60
2009,01,18,08,18,0.60
2009,01,18,08,19,0.60
2009,01,18,08,20,0.60
2009,01,18,08,21,0.50
2009,01,18,08,22,0.50
2009,01,18,08,23,0.50
2009,01,18,08,24,0.50
2009,01,18,08,25,0.60
2009,01,18,08,26,0.60
2009,01,18,08,27,0.70
2009,01,18,08,28,0.80
2009,01,18,08,29,0.80
2009,01,18,08,30,0.90
2009,01,18,08,31,1.00
2009,01,18,08,32,1.00
2009,01,18,08,33,1.10
2009,01,18,08,34,1.10
2009,01,18,08,35,1.10
2009,01,18,08,36,1.10
2009,01,18,08,37,1.10
2009,01,18,08,38,1.10
2009,01,18,08,39,1.20
2009,01,18,08,40,1.20
2009,01,18,08,41,1.20
2009,01,18,08,42,1.30
2009,01,18,08,43,1.30
2009,01,18,08,44,1.40
2009,01,18,08,45,1.60
2009,01,18,08,46,1.70
2009,01,18,08,47,1.70
2009,01,18,08,48,1.80
2009,01,18,08,49,1.80
2009,01,18,08,50,1.90
2009,01,18,08,51,2.00
2009,01,18,08,52,2.00
2009,01,18,08,53,2.10
2009,01,18,08,54,2.20
2009,01,18,08,55,2.30
2009,01,18,08,56,2.30
2009,01,18,08,57,2.30
2009,01,18,08,58,2.30
2009,01,18,08,59,2.40
2009,01,18,09,00,2.50
2009,01,18,09,01,2.70
2009,01,18,09,02,2.80
2009,01,18,09,03,2.90
2009,01,18,09,04,3.10
2009,01,18,09,05,3.20
2009,01,18,09,06,3.30
2009,01,18,09,07,3.40
2009,01,18,09,08,3.60
2009,01,18,09,09,3.70
2009,01,18,09,10,3.90
2009,01,18,09,11,4.00
2009,01,18,09,12,4.10
2009,01,18,09,13,4.20
2009,01,18,09,14,4.30
2009,01,18,09,15,4.40
2009,01,18,09,16,4.60
2009,01,18,09,17,4.70
2009,01,18,09,18,4.90
2009,01,18,09,19,5.00
2009,01,18,09,20,5.20
2009,01,18,09,21,5.40
2009,01,18,09,22,5.50
2009,01,18,09,23,5.60
2009,01,18,09,24,5.70
2009,01,18,09,25,5.80
2009,01,18,09,26,5.90
2009,01,18,09,27,6.00
2009,01,18,09,28,6.10
2009,01,18,09,29,6.20
2009,01,18,09,30,6.30
2009,01,18,09,31,6.50
2009,01,18,09,32,6.60
2009,01,18,09,33,6.70
2009,01,18,09,34,6.80
2009,01,18,09,35,7.00
2009,01,18,09,36,7.10
2009,01,18,09,37,7.20
2009,01,18,09,38,7.20
2009,01,18,09,39,7.20
2009,01,18,09,40,7.30
2009,01,18,09,41,7.40
2009,01,18,09,42,7.40
2009,01,18,09,43,7.50
2009,01,18,09,44,7.60
2009,01,18,09,45,7.70
2009,01,18,09,46,7.70
2009,01,18,09,47,7.80
2009,01,18,09,48,7.80
2009,01,18,09,49,7.80
2009,01,18,09,50,7.90
2009,01,18,09,51,8.00
2009,01,18,09,52,8.00
2009,01,18,09,53,8.10
2009,01,18,09,54,8.20
2009,01,18,09,55,8.30
2009,01,18,09,56,8.30
2009,01,18,09,57,8.40
2009,01,18,09,58,8.50
2009,01,18,09,59,8.60
2009,01,18,10,00,8.70
2009,01,18,10,01,8.80
2009,01,18,10,02,8.80
2009,01,18,10,03,8.90
2009,01,18,10,04,8.90
2009,01,18,10,05,9.00
2009,01,18,10,06,9.10
2009,01,18,10,07,9.10
2009,01,18,10,08,9.20
2009,01,18,10,09,9.20
2009,01,18,10,10,9.20
2009,01,18,10,11,9.30
2009,01,18,10,12,9.30
2009,01,18,10,13,9.30
2009,01,18,10,14,9.30
2009,01,18,10,15,9.30
2009,01,18,10,16,9.30
2009,01,18,10,17,9.30
2009,01,18,10,18,9.40
2009,01,18,10,19,9.40
2009,01,18,10,20,9.50
2009,01,18,10,21,9.60
2009,01,18,10,22,9.60
2009,01,18,10,23,9.70
2009,01,18,10,24,9.80
2009,01,18,10,25,9.80
2009,01,18,10,26,9.80
2009,01,18,10,27,9.90
2009,01,18,10,28,9.90
2009,01,18,10,29,9.90
2009,01,18,10,30,10.00
2009,01,18,10,31,10.00
2009,01,18,10,32,10.10
2009,01,18,10,33,10.10
2009,01,18,10,34,10.20
2009,01,18,10,35,10.20
2009,01,18,10,36,10.20
2009,01,18,10,37,10.30
2009,01,18,10,38,10.30
2009,01,18,10,39,10.30
2009,01,18,10,40,10.30
2009,01,18,10,41,10.40
2009,01,18,10,42,10.40
2009,01,18,10,43,10.40
2009,01,18,10,44,10.50
2009,01,18,10,45,10.60
2009,01,18,10,46,10.60
2009,01,18,10,47,10.60
2009,01,18,10,48,10.70
2009,01,18,10,49,10.70
2009,01,18,10,50,10.80
2009,01,18,10,51,10.80
2009,01,18,10,52,10.80
2009,01,18,10,53,10.80
2009,01,18,10,54,10.90
2009,01,18,10,55,10.90
2009,01,18,10,56,10.90
2009,01,18,10,57,11.00
2009,01,18,10,58,11.00
2009,01,18,10,59,11.00
2009,01,18,11,00,11.00
2009,01,18,11,01,11.00
2009,01,18,11,02,11.10
2009,01,18,11,03,11.10
2009,01,18,11,04,11.10
2009,01,18,11,05,11.10
2009,01,18,11,06,11.10
2009,01,18,11,07,11.10
2009,01,18,11,08,11.10
2009,01,18,11,09,11.10
2009,01,18,11,10,11.10
2009,01,18,11,11,11.10
2009,01,18,11,12,11.10
2009,01,18,11,13,11.10
2009,01,18,11,14,11.20
2009,01,18,11,15,11.20
2009,01,18,11,16,11.20
2009,01,18,11,17,11.20
2009,01,18,11,18,11.30
2009,01,18,11,19,11.30
2009,01,18,11,20,11.40
2009,01,18,11,21,11.40
2009,01,18,11,22,11.40
2009,01,18,11,23,11.40
2009,01,18,11,24,11.50
2009,01,18,11,25,11.50
2009,01,18,11,26,11.50
2009,01,18,11,27,11.50
2009,01,18,11,28,11.60
2009,01,18,11,29,11.60
2009,01,18,11,30,11.60
2009,01,18,11,31,11.60
2009,01,18,11,32,11.60
2009,01,18,11,33,11.70
2009,01,18,11,34,11.70
2009,01,18,11,35,11.70
2009,01,18,11,36,11.80
2009,01,18,11,37,11.80
2009,01,18,11,38,11.80
2009,01,18,11,39,11.90
2009,01,18,11,40,12.00
2009,01,18,11,41,12.10
2009,01,18,11,42,12.20
2009,01,18,11,43,12.30
2009,01,18,11,44,12.30
2009,01,18,11,45,12.40
2009,01,18,11,46,12.50
2009,01,18,11,47,12.50
2009,01,18,11,48,12.50
2009,01,18,11,49,12.50
2009,01,18,11,50,12.50
2009,01,18,11,51,12.40
2009,01,18,11,52,12.40
2009,01,18,11,53,12.40
2009,01,18,11,54,12.40
2009,01,18,11,55,12.40
2009,01,18,11,56,12.40
2009,01,18,11,57,12.40
2009,01,18,11,58,12.40
2009,01,18,11,59,12.40
2009,01,18,12,00,12.40
2009,01,18,12,01,12.40
2009,01,18,12,02,12.40
2009,01,18,12,03,12.50
2009,01,18,12,04,12.50
2009,01,18,12,05,12.40
2009,01,18,12,06,12.40
2009,01,18,12,07,12.50
2009,01,18,12,08,12.50
2009,01,18,12,09,12.50
2009,01,18,12,10,12.60
2009,01,18,12,11,12.70
2009,01,18,12,12,12.70
2009,01,18,12,13,12.80
2009,01,18,12,14,12.80
2009,01,18,12,15,12.90
2009,01,18,12,16,12.90
2009,01,18,12,17,12.90
2009,01,18,12,18,12.90
2009,01,18,12,19,12.80
2009,01,18,12,20,12.90
2009,01,18,12,21,12.90
2009,01,18,12,22,12.90
2009,01,18,12,23,13.00
2009,01,18,12,24,13.00
2009,01,18,12,25,13.00
2009,01,18,12,26,13.00
2009,01,18,12,27,13.00
2009,01,18,12,28,13.00
2009,01,18,12,29,13.00
2009,01,18,12,30,13.00
2009,01,18,12,31,13.00
2009,01,18,12,32,12.90
2009,01,18,12,33,12.90
2009,01,18,12,34,12.90
2009,01,18,12,35,12.80
2009,01,18,12,36,12.80
2009,01,18,12,37,12.80
2009,01,18,12,38,12.80
2009,01,18,12,39,12.80
2009,01,18,12,40,12.90
2009,01,18,12,41,12.90
2009,01,18,12,42,12.90
2009,01,18,12,43,12.90
2009,01,18,12,44,12.90
2009,01,18,12,45,12.90
2009,01,18,12,46,13.00
2009,01,18,12,47,13.00
2009,01,18,12,48,13.10
2009,01,18,12,49,13.10
2009,01,18,12,50,13.20
2009,01,18,12,51,13.20
2009,01,18,12,52,13.20
2009,01,18,12,53,13.30
2009,01,18,12,54,13.30
2009,01,18,12,55,13.40
2009,01,18,12,56,13.40
2009,01,18,12,57,13.50
2009,01,18,12,58,13.50
2009,01,18,12,59,13.50
2009,01,18,13,00,13.50
2009,01,18,13,01,13.50
2009,01,18,13,02,13.50
2009,01,18,13,03,13.50
2009,01,18,13,04,13.50
2009,01,18,13,05,13.60
2009,01,18,13,06,13.60
2009,01,18,13,07,13.60
2009,01,18,13,08,13.60
2009,01,18,13,09,13.60
2009,01,18,13,10,13.60
2009,01,18,13,11,13.60
2009,01,18,13,12,13.60
2009,01,18,13,13,13.60
2009,01,18,13,14,13.60
2009,01,18,13,15,13.60
2009,01,18,13,16,13.60
2009,01,18,13,17,13.70
2009,01,18,13,18,13.70
2009,01,18,13,19,13.70
2009,01,18,13,20,13.70
2009,01,18,13,21,13.80
2009,01,18,13,22,13.80
2009,01,18,13,23,13.70
2009,01,18,13,24,13.70
2009,01,18,13,25,13.70
2009,01,18,13,26,13.70
2009,01,18,13,27,13.70
2009,01,18,13,28,13.70
2009,01,18,13,29,13.70
2009,01,18,13,30,13.70
2009,01,18,13,31,13.70
2009,01,18,13,32,13.70
2009,01,18,13,33,13.70
2009,01,18,13,34,13.80
2009,01,18,13,35,13.80
2009,01,18,13,36,13.80
2009,01,18,13,37,13.80
2009,01,18,13,38,13.80
2009,01,18,13,39,13.70
2009,01,18,13,40,13.70
2009,01,18,13,41,13.70
2009,01,18,13,42,13.70
2009,01,18,13,43,13.60
2009,01,18,13,44,13.60
2009,01,18,13,45,13.70
2009,01,18,13,46,13.70
2009,01,18,13,47,13.70
2009,01,18,13,48,13.70
2009,01,18,13,49,13.70
2009,01,18,13,50,13.70
2009,01,18,13,51,13.70
2009,01,18,13,52,13.70
2009,01,18,13,53,13.70
2009,01,18,13,54,13.60
2009,01,18,13,55,13.60
2009,01,18,13,56,13.60
2009,01,18,13,57,13.60
2009,01,18,13,58,13.60
2009,01,18,13,59,13.60
2009,01,18,14,00,13.60
2009,01,18,14,01,13.60
2009,01,18,14,02,13.60
2009,01,18,14,03,13.60
2009,01,18,14,04,13.60
2009,01,18,14,05,13.60
2009,01,18,14,06,13.60
2009,01,18,14,07,13.60
2009,01,18,14,08,13.60
2009,01,18,14,09,13.70
2009,01,18,14,10,13.70
2009,01,18,14,11,13.70
2009,01,18,14,12,13.70
2009,01,18,14,13,13.70
2009,01,18,14,14,13.70
2009,01,18,14,15,13.70
2009,01,18,14,16,13.70
2009,01,18,14,17,13.80
2009,01,18,14,18,13.80
2009,01,18,14,19,13.80
2009,01,18,14,20,13.80
2009,01,18,14,21,13.80
2009,01,18,14,22,13.80
2009,01,18,14,23,13.70
2009,01,18,14,24,13.60
2009,01,18,14,25,13.60
2009,01,18,14,26,13.70
2009,01,18,14,27,13.70
2009,01,18,14,28,13.60
2009,01,18,14,29,13.60
2009,01,18,14,30,13.50
2009,01,18,14,31,13.50
2009,01,18,14,32,13.60
2009,01,18,14,33,13.60
2009,01,18,14,34,13.60
2009,01,18,14,35,13.60
2009,01,18,14,36,13.60
2009,01,18,14,37,13.60
2009,01,18,14,38,13.70
2009,01,18,14,39,13.70
2009,01,18,14,40,13.70
2009,01,18,14,41,13.70
2009,01,18,14,42,13.80
2009,01,18,14,43,13.80
2009,01,18,14,44,13.80
2009,01,18,14,45,13.80
2009,01,18,14,46,13.80
2009,01,18,14,47,13.80
2009,01,18,14,48,13.80
2009,01,18,14,49,13.80
2009,01,18,14,50,13.80
2009,01,18,14,51,13.80
2009,01,18,14,52,13.70
2009,01,18,14,53,13.70
2009,01,18,14,54,13.70
2009,01,18,14,55,13.60
2009,01,18,14,56,13.60
2009,01,18,14,57,13.60
2009,01,18,14,58,13.50
2009,01,18,14,59,13.50
2009,01,18,15,00,13.50
2009,01,18,15,01,13.50
2009,01,18,15,02,13.60
2009,01,18,15,03,13.60
2009,01,18,15,04,13.60
2009,01,18,15,05,13.70
2009,01,18,15,06,13.70
2009,01,18,15,07,13.70
2009,01,18,15,08,13.70
2009,01,18,15,09,13.70
2009,01,18,15,10,13.70
2009,01,18,15,11,13.60
2009,01,18,15,12,13.60
2009,01,18,15,13,13.60
2009,01,18,15,14,13.60
2009,01,18,15,15,13.60
2009,01,18,15,16,13.60
2009,01,18,15,17,13.60
2009,01,18,15,18,13.60
2009,01,18,15,19,13.60
2009,01,18,15,20,13.60
2009,01,18,15,21,13.60
2009,01,18,15,22,13.60
2009,01,18,15,23,13.50
2009,01,18,15,24,13.40
2009,01,18,15,25,13.40
2009,01,18,15,26,13.30
2009,01,18,15,27,13.30
2009,01,18,15,28,13.20
2009,01,18,15,29,13.10
2009,01,18,15,30,13.00
2009,01,18,15,31,13.00
2009,01,18,15,32,12.90
2009,01,18,15,33,12.90
2009,01,18,15,34,12.90
2009,01,18,15,35,12.90
2009,01,18,15,36,12.90
2009,01,18,15,37,12.90
2009,01,18,15,38,12.90
2009,01,18,15,39,12.80
2009,01,18,15,40,12.80
2009,01,18,15,41,12.80
2009,01,18,15,42,12.80
2009,01,18,15,43,12.80
2009,01,18,15,44,12.70
2009,01,18,15,45,12.70
2009,01,18,15,46,12.60
2009,01,18,15,47,12.60
2009,01,18,15,48,12.50
2009,01,18,15,49,12.50
2009,01,18,15,50,12.40
2009,01,18,15,51,12.40
2009,01,18,15,52,12.30
2009,01,18,15,53,12.30
2009,01,18,15,54,12.30
2009,01,18,15,55,12.30
2009,01,18,15,56,12.30
2009,01,18,15,57,12.20
2009,01,18,15,58,12.20
2009,01,18,15,59,12.20
2009,01,18,16,00,12.20
2009,01,18,16,01,12.20
2009,01,18,16,02,12.20
2009,01,18,16,03,12.20
2009,01,18,16,04,12.10
2009,01,18,16,05,12.10
2009,01,18,16,06,12.10
2009,01,18,16,07,12.10
2009,01,18,16,08,12.10
2009,01,18,16,09,12.00
2009,01,18,16,10,12.00
2009,01,18,16,11,12.00
2009,01,18,16,12,11.90
2009,01,18,16,13,11.90
2009,01,18,16,14,11.90
2009,01,18,16,15,11.90
2009,01,18,16,16,11.80
2009,01,18,16,17,11.80
2009,01,18,16,18,11.80
2009,01,18,16,19,11.70
2009,01,18,16,20,11.60
2009,01,18,16,21,11.60
2009,01,18,16,22,11.50
2009,01,18,16,23,11.40
2009,01,18,16,24,11.40
2009,01,18,16,25,11.30
2009,01,18,16,26,11.30
2009,01,18,16,27,11.20
2009,01,18,16,28,11.10
2009,01,18,16,29,11.00
2009,01,18,16,30,11.00
2009,01,18,16,31,10.90
2009,01,18,16,32,10.80
2009,01,18,16,33,10.70
2009,01,18,16,34,10.70
2009,01,18,16,35,10.60
2009,01,18,16,36,10.60
2009,01,18,16,37,10.50
2009,01,18,16,38,10.40
2009,01,18,16,39,10.40
2009,01,18,16,40,10.30
2009,01,18,16,41,10.30
2009,01,18,16,42,10.20
2009,01,18,16,43,10.10
2009,01,18,16,44,10.10
2009,01,18,16,45,10.00
2009,01,18,16,46,10.00
2009,01,18,16,47,9.90
2009,01,18,16,48,9.90
2009,01,18,16,49,9.80
2009,01,18,16,50,9.80
2009,01,18,16,51,9.70
2009,01,18,16,52,9.60
2009,01,18,16,53,9.60
2009,01,18,16,54,9.50
2009,01,18,16,55,9.40
2009,01,18,16,56,9.40
2009,01,18,16,57,9.30
2009,01,18,16,58,9.20
2009,01,18,16,59,9.10
2009,01,18,17,00,9.00
2009,01,18,17,01,8.90
2009,01,18,17,02,8.80
2009,01,18,17,03,8.70
2009,01,18,17,04,8.70
2009,01,18,17,05,8.60
2009,01,18,17,06,8.50
2009,01,18,17,07,8.50
2009,01,18,17,08,8.40
2009,01,18,17,09,8.30
2009,01,18,17,10,8.20
2009,01,18,17,11,8.20
2009,01,18,17,12,8.10
2009,01,18,17,13,8.00
2009,01,18,17,14,7.90
2009,01,18,17,15,7.80
2009,01,18,17,16,7.80
2009,01,18,17,17,7.70
2009,01,18,17,18,7.60
2009,01,18,17,19,7.50
2009,01,18,17,20,7.50
2009,01,18,17,21,7.40
2009,01,18,17,22,7.30
2009,01,18,17,23,7.30
2009,01,18,17,24,7.20
2009,01,18,17,25,7.20
2009,01,18,17,26,7.20
2009,01,18,17,27,7.20
2009,01,18,17,28,7.10
2009,01,18,17,29,7.00
2009,01,18,17,30,7.00
2009,01,18,17,31,6.90
2009,01,18,17,32,6.80
2009,01,18,17,33,6.80
2009,01,18,17,34,6.80
2009,01,18,17,35,6.70
2009,01,18,17,36,6.70
2009,01,18,17,37,6.70
2009,01,18,17,38,6.70
2009,01,18,17,39,6.70
2009,01,18,17,40,6.60
2009,01,18,17,41,6.60
2009,01,18,17,42,6.50
2009,01,18,17,43,6.40
2009,01,18,17,44,6.40
2009,01,18,17,45,6.40
2009,01,18,17,46,6.30
2009,01,18,17,47,6.30
2009,01,18,17,48,6.20
2009,01,18,17,49,6.20
2009,01,18,17,50,6.20
2009,01,18,17,51,6.10
2009,01,18,17,52,6.10
2009,01,18,17,53,6.00
2009,01,18,17,54,6.00
2009,01,18,17,55,5.90
2009,01,18,17,56,5.90
2009,01,18,17,57,5.80
2009,01,18,17,58,5.80
2009,01,18,17,59,5.80
2009,01,18,18,00,5.70
2009,01,18,18,01,5.70
2009,01,18,18,02,5.70
2009,01,18,18,03,5.60
2009,01,18,18,04,5.60
2009,01,18,18,05,5.50
2009,01,18,18,06,5.50
2009,01,18,18,07,5.40
2009,01,18,18,08,5.40
2009,01,18,18,09,5.30
2009,01,18,18,10,5.30
2009,01,18,18,11,5.30
2009,01,18,18,12,5.20
2009,01,18,18,13,5.20
2009,01,18,18,14,5.10
2009,01,18,18,15,5.10
2009,01,18,18,16,5.10
2009,01,18,18,17,5.10
2009,01,18,18,18,5.00
2009,01,18,18,19,5.00
2009,01,18,18,20,4.90
2009,01,18,18,21,4.90
2009,01,18,18,22,4.90
2009,01,18,18,23,4.90
2009,01,18,18,24,4.80
2009,01,18,18,25,4.80
2009,01,18,18,26,4.70
2009,01,18,18,27,4.70
2009,01,18,18,28,4.70
2009,01,18,18,29,4.60
2009,01,18,18,30,4.60
2009,01,18,18,31,4.60